EW6420 Weather Reports


Display with metric or nautical units.
time (UTC)temp
F
wind
direction
speed
MPH
gust
MPH
rain 1hr
in
rain 24hr
in
rain mn
in
humidity
%
barometer
mb
20260505010012 76 81 0.0 2.0 0.00 0.00 0.00 50 1009.2
20260505004504 77 81 0.0 2.0 0.00 0.00 0.00 49 1009.2
20260505003005 77 81 0.0 2.0 0.00 0.00 0.00 48 1009.1
20260505001509 77 81 0.0 2.0 0.00 0.00 0.00 48 1009.1
20260505000006 77 81 0.0 2.0 0.00 0.00 0.00 47 1009.0
20260504234508 77 92 0.0 2.0 0.00 0.00 0.00 48 1009.0
20260504233003 77 137 0.0 2.0 0.00 0.00 0.00 45 1009.1
20260504231504 77 142 0.0 2.0 0.00 0.00 0.00 44 1009.2
20260504230005 77 96 0.0 2.0 0.00 0.00 0.00 45 1009.3
20260504224504 78 100 0.0 2.0 0.00 0.00 0.00 46 1009.5
20260504223005 77 80 0.0 2.0 0.00 0.00 0.00 47 1009.5
20260504221503 77 81 0.0 2.0 0.00 0.00 0.00 49 1009.7
20260504220007 77 115 0.0 3.0 0.00 0.00 0.00 48 1009.8
20260504214502 77 78 0.0 2.0 0.00 0.00 0.00 48 1009.8
20260504213002 76 112 0.0 2.0 0.00 0.00 0.00 48 1009.9
20260504211503 76 106 0.0 2.0 0.00 0.00 0.00 47 1010.0
20260504204504 75 116 0.0 2.0 0.00 0.00 0.00 48 1010.1
20260504203003 74 116 0.0 2.0 0.00 0.00 0.00 47 1010.2
20260504201502 73 108 0.0 0.0 0.00 0.00 0.00 47 1010.3
20260504200004 72 81 0.0 0.0 0.00 0.00 0.00 48 1010.4
20260504194507 72 81 0.0 0.0 0.00 0.00 0.00 49 1010.4
20260504193005 71 145 0.0 0.0 0.00 0.00 0.00 49 1010.4
20260504191503 71 66 0.0 0.0 0.00 0.00 0.00 52 1010.6
20260504190004 70 88 0.0 0.0 0.00 0.00 0.00 54 1010.7
20260504183005 69 88 0.0 0.0 0.00 0.00 0.00 54 1011.0
20260504181502 68 88 0.0 0.0 0.00 0.00 0.00 55 1011.0
20260504180002 68 88 0.0 0.0 0.00 0.00 0.00 56 1010.9
20260504174502 67 90 0.0 0.0 0.00 0.00 0.00 59 1011.0
20260504173002 66 91 0.0 0.0 0.00 0.00 0.00 58 1011.0
20260504171503 66 44 0.0 0.0 0.00 0.00 0.00 58 1011.0
20260504081502 58 87 0.0 0.0 0.00 0.00 0.00 74 1009.1
20260504050005 65 87 0.0 0.0 0.00 0.00 0.00 62 1009.0
20260504044505 66 87 0.0 0.0 0.00 0.00 0.00 59 1009.0
20260504043005 66 87 0.0 0.0 0.00 0.00 0.00 57 1009.0
20260504041503 67 87 0.0 0.0 0.00 0.00 0.00 55 1008.8
20260504040005 68 87 0.0 0.0 0.00 0.00 0.00 53 1008.8
20260504034504 70 87 0.0 0.0 0.00 0.00 0.00 52 1008.7
20260504033005 71 87 0.0 0.0 0.00 0.00 0.00 50 1008.6
20260504031504 71 87 0.0 0.0 0.00 0.00 0.00 47 1008.5
20260504030007 72 87 0.0 0.0 0.00 0.00 0.00 46 1008.5
20260504024502 73 87 0.0 0.0 0.00 0.00 0.00 46 1008.5
20260504023002 74 87 0.0 2.0 0.00 0.00 0.00 45 1008.5
20260504021504 75 87 0.0 0.0 0.00 0.00 0.00 44 1008.5
20260504020005 76 87 0.0 0.0 0.00 0.00 0.00 43 1008.5
20260504014505 76 87 0.0 2.0 0.00 0.00 0.00 43 1008.5
20260504013005 77 87 0.0 2.0 0.00 0.00 0.00 42 1008.6
20260504011504 78 87 0.0 2.0 0.00 0.00 0.00 42 1008.8